Regional Weather Roundup
Issued by NWS Northern Indiana

Home | Current Version | Previous Version | Text Only | Print | Product List | Glossary Off
Versions: 1 2 3 4 5 6 7 8 9 10 11 12 13 14 15 16 17 18 19 20 21 22 23 24 25 26 27 28 29 30 31 32 33 34 35 36 37 38 39 40 41 42 43 44 45 46 47 48 49 50

000
ASUS43 KIWX 271000
RWRIWX

KIWX WEATHER ROUNDUP
NATIONAL WEATHER SERVICE NORTHERN INDIANA
500 AM EST THU NOV 27 2014

NOTE: "FAIR" INDICATES FEW OR NO CLOUDS BELOW 12,000 FEET WITH NO
SIGNIFICANT WEATHER AND/OR OBSTRUCTIONS TO VISIBILITY.

* THESE STATIONS ARE NOT UNDER NWS QUALITY CONTROL. THEY ALSO MAY NOT
  REPORT WEATHER SUCH AS PRECIPITATION OR FOG.

INZ001>027-271100-
NORTHERN INDIANA

CITY           SKY/WX    TMP DP  RH WIND       PRES   REMARKS
SOUTH BEND     FLURRIES  28  23  81 W7        30.18R WCI  21
GOSHEN         CLOUDY    27  22  81 W5        30.16R WCI  22
ANGOLA*        CLOUDY    27  14  59 NW6       30.13R WCI  20
FORT WAYNE     CLOUDY    28  23  81 NW5       30.15R WCI  23
PERU/GRISSOM   CLOUDY    26  25  93 NW9       30.18R WCI  17

$$
INZ028>050-271100-
CENTRAL INDIANA

CITY           SKY/WX    TMP DP  RH WIND       PRES   REMARKS
LAFAYETTE      CLOUDY    25  21  85 NW6       30.22R WCI  18
KOKOMO*        CLOUDY    27  19  74 NW12      30.18R WCI  16
MUNCIE*        CLOUDY    28  22  78 NW10      30.14R WCI  19
INDIANAPOLIS   CLOUDY    27  19  72 N12       30.18R WCI  17

$$
MIZ043>046-050>051-056>058-064>065-071>073-077>080-271100-
SOUTHWEST LOWER MICHIGAN

CITY           SKY/WX    TMP DP  RH WIND       PRES   REMARKS
BATTLE CREEK   CLOUDY    29  21  72 W6        30.14S WCI  23
BENTON HARBOR  CLOUDY    27  24  89 S3        30.17R
COLDWATER*     CLOUDY    30  21  70 N6        30.13S WCI  24
HILLSDALE*     LGT SNOW  26  25  94 NW6       30.10S WCI  20
HOLLAND        LGT SNOW  31  23  72 CALM      30.17S
GRAND RAPIDS   CLOUDY    28  22  78 W7        30.15S WCI  21
KALAMAZOO      CLOUDY    28  22  78 NW3       30.15R
STURGIS*       CLOUDY    27  23  86 NW5       30.14R WCI  21
THREE RIVERS*  CLOUDY    29  24  81 NW3       30.15S

$$
OHZ001>008-015>018-024>025-271100-
NORTHWEST OHIO

CITY           SKY/WX    TMP DP  RH WIND       PRES   REMARKS
DEFIANCE       CLOUDY    30  23  75 NW8       30.14R WCI  22
FINDLAY        CLOUDY    31  25  78 NW9       30.09R WCI  23
TOLEDO EXPRESS CLOUDY    29  23  78 NW8       30.11R WCI  21
TOLEDO METCALF CLOUDY    30  24  78 NW9       30.11R WCI  22
LIMA           CLOUDY    30  25  81 N8        30.10R WCI  22

$$
AND FOR LAKE MICHIGAN COASTAL AND OPEN LAKE BUOY OBSERVATIONS

STATION/POSITION TEMP    WIND        PRES    VSBY  WAVE
                 AIR SEA DIR/SP/G                  HT/PER
                 (F)     (DEG/KT/KT) (MB)    (MI)  (FT/S)
CALUMET HARBOR    27     290/  6/ 10 1022.1R
MICHIGAN CITY     31     320/ 18/ 26   N/A
SAINT JOSEPH      29      CALM  /  3 1022.0F
SOUTH LAKE BUOY   32 42  320/ 17/ 21 1022.3S         4/ 5

$$
&&


USA.gov is the U.S. government's official web portal to all federal, state and local government web resources and services.